Voltar ao catálogo

STARLINK-35095

AtivoComunicaçõesVLEO
NORAD 65425·PAYLOAD·🇺🇸 United States

Lançado Aug 31, 2025 de Cape Canaveral Space Force Station

Loading…

Próximas Passagens (próximas 24 horas)

TLE

AtualizadoSource: CelesTrak SupGP

Época: Sep 14, 2026, 14:18 UTC

1 65425C 25192X   26257.59631944 -.00031121  00000+0 -10004-2 0  2577
2 65425  53.1590  73.7780 0001253  92.1257 223.3833 15.31730222    17

Acompanhe STARLINK-35095 em tempo real com AllMySat

Download on the App Store